Kalaheo, HI

3:05 PM HST on August 28, 2016 (GMT -1000)
Lawai | | Change Station

Elev 512 ft 21.92 °N, 159.51 °W | Updated 16 seconds ago

Partly Cloudy
Partly Cloudy
80.4 °F
Feels Like 84 °F
N
2.0
Wind Variable Wind from North
Gusts 11.0 mph

Today
High -- | Low -- °F
--% Chance of Precip.
Yesterday
High -- | Low -- °F
Precip. -- in
Pressure 29.95 in
Visibility 10.0 miles
Clouds Few 2600 ft
Heat Index 84 °F
Dew Point 70 °F
Humidity 70%
Rainfall 0.15 in
Snow Depth Not available.
6:20 AM 6:57 PM
Waning Crescent, 12% visible
METAR PHLI 290053Z 05014KT 10SM FEW026 29/20 A2996 RMK AO2 SLP141 T02940200
Pressure 29.95 in
Visibility 10.0 miles
Clouds Few 2600 ft
Heat Index 84 °F
Dew Point 70 °F
Humidity 70%
Rainfall 0.15 in
Snow Depth Not available.
6:20 AM 6:57 PM
Waning Crescent, 12% visible
METAR PHLI 290053Z 05014KT 10SM FEW026 29/20 A2996 RMK AO2 SLP141 T02940200

10-Day Weather Forecast

Almanac

Astronomy

Aug. 28, 2016 Rise Set
Actual Time
Civil Twilight
Nautical Twilight
Astronomical Twilight
Moon
Length of Visible Light
Length of Day
Tomorrow will be .
, % of the Moon is Illuminated

Today's Extremes

State Highs State Lows

Community

WunderPhotos

Upload Photos

1,935,752 photos uploaded!

WunderBlog® & News

Nearby

Air Quality

  Air Quality AQ Index Pollutant
Not available.

Snow Depth

Station Depth Elevation

Earthquake Activity

City Distance Mag. Time & Date
Minimum magnitude displayed is 2.5.

Coastal Water Temperatures

Place Temperature

Stations

Nearby Weather Stations

Station Location Temp. Windchill Dew Point Humidity Wind Precip. Elev Updated Type
                   

Watches & Warnings

There are currently no watches in effect.